Flag for France Weather past 2 weeks in Marigot, Saint Martin, France

Now
81 °F

Scattered clouds.


Feels Like: 84 °F
Forecast: 78 / 82 °F
Wind: 13 mph from Southeast

Location: Juliana Airport - Saint Maarten

Current Time: Jan 27, 2015 at 9:36:55 AM

Latest Report: Jan 27, 2015 at 9:00 AM


Visibility: N/A

Pressure: 30.04 "Hg

Humidity: 70%

Dew point: 70 °F

Location of MarigotLocation

Historic Weather in Marigot — Graph

°F

Marigot temperature yesterday

Maximum temperature yesterday: 82 °F (at 11:00 AM)
Minimum temperature yesterday: 77 °F (at 3:00 AM)
Average temperature yesterday: 80 °F

Past Weeks' High & Low Weather Summary

 TemperatureHumidityPressure
High84 °F (Jan 17, 2:00 PM)94% (Jan 18, 7:00 AM)30.12 "Hg (Jan 18, 7:00 AM)
Low73 °F (Jan 18, 5:00 AM)62% (Jan 12, 5:00 PM)29.95 "Hg (Jan 16, 4:00 PM)
Average79 °F75%30.01 "Hg
* Reported Jan 12 8:00 AM — Jan 27 8:00 AM, Marigot, Weather by CustomWeather, © 2014

Note: Actual official high and low records may vary slightly from our data, if they occured in-between our weather recording intervals... More about our weather records

Advertising

Marigot weather history for previous 24 hours

 ConditionsComfort  
Time TempWeatherWind HumidityBarometerVisibility
8:00 AM
Jan 27
81 °FPassing clouds.13 mph70%30.01 "HgN/A
7:00 AM79 °FPassing clouds.13 mph74%30.01 "HgN/A
6:00 AM79 °FPassing clouds.14 mph70%29.98 "HgN/A
5:00 AM79 °FPassing clouds.12 mph70%29.98 "HgN/A
3:00 AM79 °FPassing clouds.9 mph70%29.98 "HgN/A
2:00 AM79 °FPassing clouds.8 mph74%30.01 "HgN/A
1:00 AM79 °FPassing clouds.10 mph74%30.01 "HgN/A
12:00 AM79 °FPassing clouds.9 mph74%30.04 "HgN/A
11:00 PM
Jan 26
79 °FPassing clouds.13 mph74%30.04 "HgN/A
10:00 PM79 °FPassing clouds.9 mph74%30.04 "HgN/A
9:00 PM79 °FPassing clouds.10 mph74%30.01 "HgN/A
8:00 PM79 °FPassing clouds.10 mph79%30.01 "HgN/A
7:00 PM79 °FPassing clouds.13 mph74%29.98 "HgN/A
6:00 PM79 °FScattered clouds.12 mph74%29.98 "HgN/A
5:00 PM81 °FScattered clouds.10 mph70%29.98 "HgN/A
4:00 PM82 °FScattered clouds.13 mph66%29.98 "HgN/A
3:00 PM82 °FScattered clouds.12 mph66%29.98 "HgN/A
2:00 PM82 °FScattered clouds.12 mph66%30.01 "HgN/A
1:00 PM82 °FPassing clouds.15 mph62%30.01 "HgN/A
12:00 PM82 °FWarm.7 mph66%30.04 "HgN/A
11:00 AM82 °FPassing clouds.13 mph66%30.04 "HgN/A
10:00 AM81 °FScattered clouds.13 mph70%30.07 "HgN/A
9:00 AM81 °FPassing clouds.10 mph70%30.04 "HgN/A
Weather by CustomWeather, © 2014

See weather overviewHow to use our weather pages